TimeCDT,TemperatureF,Dew PointF,Humidity,Sea Level PressureIn,VisibilityMPH,Wind Direction,Wind SpeedMPH,Gust SpeedMPH,PrecipitationIn,Events,Conditions,WindDirDegrees,DateUTC
12:52 AM,68.0,55.0,63,30.05,10.0,ENE,15.0,21.9,N/A,,Clear,70,2013-09-05 05:52:00
1:52 AM,66.9,53.1,61,30.05,10.0,East,15.0,23.0,N/A,,Clear,80,2013-09-05 06:52:00
2:52 AM,64.9,51.1,61,30.04,10.0,East,18.4,23.0,N/A,,Clear,80,2013-09-05 07:52:00
3:52 AM,64.9,53.1,65,30.04,10.0,East,11.5,18.4,N/A,,Clear,90,2013-09-05 08:52:00
4:52 AM,64.0,55.0,73,30.05,10.0,East,5.8,-,N/A,,Clear,100,2013-09-05 09:52:00
5:52 AM,64.0,55.9,75,30.06,10.0,East,4.6,-,N/A,,Clear,90,2013-09-05 10:52:00
6:52 AM,63.0,55.9,78,30.07,10.0,NE,3.5,-,N/A,,Mostly Cloudy,50,2013-09-05 11:52:00
7:52 AM,63.0,55.9,78,30.06,10.0,East,9.2,-,N/A,,Scattered Clouds,90,2013-09-05 12:52:00
8:52 AM,64.9,57.0,75,30.06,10.0,ESE,10.4,-,N/A,,Clear,110,2013-09-05 13:52:00
9:52 AM,69.1,60.1,73,30.05,10.0,ESE,6.9,-,N/A,,Clear,110,2013-09-05 14:52:00
10:52 AM,77.0,63.0,62,30.01,10.0,East,9.2,-,N/A,,Clear,90,2013-09-05 15:52:00
11:52 AM,82.9,62.1,49,30.02,10.0,SE,13.8,-,N/A,,Clear,130,2013-09-05 16:52:00
12:52 PM,87.1,61.0,41,30.01,10.0,SSE,16.1,19.6,N/A,,Clear,160,2013-09-05 17:52:00
1:52 PM,87.1,61.0,41,29.99,10.0,South,11.5,-,N/A,,Clear,170,2013-09-05 18:52:00
2:52 PM,88.0,62.1,42,29.98,10.0,SSE,8.1,-,N/A,,Clear,150,2013-09-05 19:52:00
3:52 PM,90.0,61.0,38,29.96,10.0,SE,11.5,-,N/A,,Clear,140,2013-09-05 20:52:00
4:52 PM,89.1,62.1,40,29.95,10.0,Variable,5.8,-,N/A,,Clear,0,2013-09-05 21:52:00
5:52 PM,89.1,62.1,40,29.93,10.0,SSE,6.9,-,N/A,,Clear,150,2013-09-05 22:52:00
6:52 PM,88.0,63.0,43,29.92,10.0,SSE,9.2,-,N/A,,Clear,150,2013-09-05 23:52:00
7:52 PM,82.9,64.9,54,29.92,10.0,SSE,8.1,-,N/A,,Clear,160,2013-09-06 00:52:00
8:52 PM,77.0,64.0,64,29.93,10.0,SE,6.9,-,N/A,,Clear,130,2013-09-06 01:52:00
9:52 PM,75.0,64.0,69,29.93,10.0,SE,6.9,-,N/A,,Clear,140,2013-09-06 02:52:00
10:52 PM,73.9,64.0,71,29.92,10.0,SE,9.2,-,N/A,,Clear,130,2013-09-06 03:52:00
11:52 PM,71.1,64.9,81,29.91,10.0,East,5.8,-,N/A,,Clear,100,2013-09-06 04:52:00